EW3861 Weather Reports


time (UTC)temp
C
wind
direction
speed
KPH
gust
KPH
rain 1hr
cm
rain 24hr
cm
rain mn
cm
humidity
%
barometer
mb
20260902214543 22 277 0.0 0.0 0.00 0.00 0.00 69 1018.8
20260902213045 22 277 0.0 0.0 0.00 0.00 0.00 69 1018.8
20260902211548 22 292 0.0 0.0 0.00 0.00 0.00 66 1018.8
20260902210047 23 244 0.0 0.0 0.00 0.00 0.00 68 1019.1
20260902204542 23 244 0.0 0.0 0.00 0.00 0.00 63 1019.3
20260902203055 24 244 0.0 0.0 0.00 0.00 0.00 60 1019.3
20260902201544 24 242 0.0 0.0 0.00 0.00 0.00 57 1019.3
20260902200052 25 242 0.0 0.0 0.00 0.00 0.00 57 1019.2
20260902194538 25 240 0.0 0.0 0.00 0.00 0.00 57 1019.5
20260902193038 24 286 0.0 0.0 0.00 0.00 0.00 61 1019.5
20260902191548 24 317 0.0 0.0 0.00 0.00 0.00 59 1019.7
20260902190036 25 315 0.0 0.0 0.00 0.00 0.00 62 1019.8
20260902184546 24 292 0.0 0.0 0.00 0.00 0.00 64 1019.8
20260902183034 25 333 0.0 0.0 0.00 0.00 0.00 65 1019.6
20260902181535 24 314 0.0 0.0 0.00 0.00 0.00 62 1019.6
20260902180033 23 215 0.0 0.0 0.00 0.00 0.00 66 1019.5
20260902174527 23 312 0.0 0.0 0.00 0.00 0.00 70 1019.7
20260902173024 22 319 0.0 0.0 0.00 0.00 0.00 69 1019.9
20260902171522 22 329 0.0 0.0 0.00 0.00 0.00 71 1020.0
20260902170021 22 24 0.0 0.0 0.00 0.00 0.00 71 1020.1
20260902164519 22 320 0.0 0.0 0.00 0.00 0.00 71 1020.1
20260902163018 22 232 0.0 0.0 0.00 0.00 0.00 72 1020.1
20260902161515 21 275 0.0 0.0 0.00 0.00 0.00 73 1020.3
20260902160014 21 275 0.0 0.0 0.00 0.00 0.00 74 1020.4
20260902154521 20 234 0.0 0.0 0.00 0.00 0.00 77 1020.8
20260902153010 20 306 0.0 0.0 0.00 0.00 0.00 80 1021.0
20260902151505 20 235 0.0 0.0 0.00 0.00 0.00 83 1020.9
20260902150100 18 254 0.0 0.0 0.00 0.00 0.00 87 1020.9
20260902144555 18 254 0.0 0.0 0.00 0.00 0.00 91 1020.8
20260902143052 18 327 0.0 0.0 0.00 0.00 0.00 96 1020.6
20260902141550 17 327 0.0 0.0 0.00 0.00 0.00 97 1020.4
20260902140049 17 348 0.0 0.0 0.00 0.00 0.00 97 1020.3
20260902134554 17 335 0.0 0.0 0.00 0.00 0.00 98 1020.2
20260902133048 17 306 0.0 0.0 0.00 0.00 0.00 98 1019.9
20260902131557 17 241 0.0 0.0 0.00 0.00 0.00 98 1020.0
20260902130046 17 232 0.0 0.0 0.00 0.00 0.00 98 1020.1
20260902124545 17 229 0.0 0.0 0.00 0.00 0.00 98 1020.4
20260902123101 16 229 0.0 0.0 0.00 0.00 0.00 98 1020.3
20260902121550 16 229 0.0 0.0 0.00 0.00 0.00 98 1020.5
20260902120035 15 229 0.0 0.0 0.00 0.00 0.00 98 1020.6
20260902114533 15 229 0.0 0.0 0.00 0.00 0.00 98 1020.7
20260902113031 15 229 0.0 0.0 0.00 0.00 0.00 98 1020.6
20260902111537 14 229 0.0 0.0 0.00 0.00 0.00 97 1020.5
20260902110029 14 229 0.0 0.0 0.00 0.00 0.00 97 1020.4
20260902104527 14 229 0.0 0.0 0.00 0.00 0.00 97 1020.1
20260902103025 14 229 0.0 0.0 0.00 0.00 0.00 97 1019.9
20260902101523 14 229 0.0 0.0 0.00 0.00 0.00 97 1019.7
20260902100021 14 229 0.0 0.0 0.00 0.00 0.00 97 1019.4
20260902094520 14 229 0.0 0.0 0.00 0.00 0.00 97 1019.5
20260902093020 14 229 0.0 0.0 0.00 0.00 0.00 97 1019.3
20260902091518 14 229 0.0 0.0 0.00 0.00 0.00 97 1019.3
20260902090018 14 229 0.0 0.0 0.00 0.00 0.00 97 1019.2
20260902084516 15 229 0.0 0.0 0.00 0.00 0.00 97 1019.2
20260902083015 15 229 0.0 0.0 0.00 0.00 0.00 97 1019.2
20260902081516 15 229 0.0 0.0 0.00 0.00 0.00 97 1018.9
20260902080016 15 229 0.0 0.0 0.00 0.00 0.00 97 1019.0
20260902074514 15 229 0.0 0.0 0.00 0.00 0.00 97 1019.2
20260902073012 15 229 0.0 0.0 0.00 0.00 0.00 97 1019.2
20260902071517 15 229 0.0 0.0 0.00 0.00 0.00 97 1019.0
20260902070010 15 229 0.0 0.0 0.00 0.00 0.00 97 1019.0
20260902064510 15 229 0.0 0.0 0.00 0.00 0.00 97 1018.8
20260902063010 15 229 0.0 0.0 0.00 0.00 0.00 97 1018.9
20260902061509 15 229 0.0 0.0 0.00 0.00 0.00 97 1018.8
20260902060008 15 229 0.0 0.0 0.00 0.00 0.00 97 1019.0
20260902054511 15 229 0.0 0.0 0.00 0.00 0.00 97 1019.0
20260902053006 15 229 0.0 0.0 0.00 0.00 0.00 97 1018.9
20260902051506 15 229 0.0 0.0 0.00 0.00 0.00 97 1018.8
20260902050014 15 229 0.0 0.0 0.00 0.00 0.00 96 1018.9
20260902044503 15 229 0.0 0.0 0.00 0.00 0.00 96 1018.7
20260902043003 15 229 0.0 0.0 0.00 0.00 0.00 96 1018.6
20260902041559 15 229 0.0 0.0 0.00 0.00 0.00 96 1018.2
20260902040056 15 229 0.0 0.0 0.00 0.00 0.00 96 1017.9
20260902034555 15 229 0.0 0.0 0.00 0.00 0.00 96 1017.9
20260902033056 15 229 0.0 0.0 0.00 0.00 0.00 96 1018.0
20260902031606 15 229 0.0 0.0 0.00 0.00 0.00 96 1017.9
20260902030053 15 229 0.0 0.0 0.00 0.00 0.00 96 1017.8
20260902024558 15 229 0.0 0.0 0.00 0.00 0.00 96 1017.8
20260902023055 15 229 0.0 0.0 0.00 0.00 0.00 96 1017.9
20260902021601 15 229 0.0 0.0 0.00 0.00 0.00 96 1017.7
20260902020058 15 229 0.0 0.0 0.00 0.00 0.00 95 1017.8
20260902014550 15 229 0.0 0.0 0.00 0.00 0.00 95 1017.9
20260902013048 15 229 0.0 0.0 0.00 0.00 0.00 96 1017.7
20260902011547 15 229 0.0 0.0 0.00 0.00 0.00 95 1017.5
20260902010045 15 229 0.0 0.0 0.00 0.00 0.00 96 1017.8
20260902004544 16 229 0.0 0.0 0.00 0.00 0.00 96 1017.5
20260902003044 16 229 0.0 0.0 0.00 0.00 0.00 95 1017.4
20260902001545 16 229 0.0 0.0 0.00 0.00 0.00 95 1017.4
20260902000042 16 229 0.0 0.0 0.00 0.00 0.00 95 1017.5
20260901234540 16 229 0.0 0.0 0.00 0.00 0.00 95 1017.3
20260901233039 16 229 0.0 0.0 0.00 0.00 0.00 95 1017.3
20260901231539 16 229 0.0 0.0 0.00 0.00 0.00 95 1017.2
20260901230054 16 229 0.0 0.0 0.00 0.00 0.00 95 1017.1
20260901224538 16 229 0.0 0.0 0.00 0.00 0.00 95 1017.1
20260901223047 16 229 0.0 0.0 0.00 0.00 0.00 95 1017.1
20260901221537 16 229 0.0 0.0 0.00 0.00 0.00 95 1017.1
20260901220056 16 229 0.0 0.0 0.00 0.00 0.00 95 1017.3